Duncan, OK

2:16 PM CDT on August 18, 2017 (GMT -0500)
Halliburton

Weather History for KDUC - September, 2012

Change the Weather History Date:

Friday, September 28, 2012

  Actual Average (KLAW) Record (KLAW)
Temperature  
Mean Temperature 70 °F -  
Max Temperature 77 °F 83 °F 106 °F (1953)
Min Temperature 64 °F 56 °F 41 °F (1967)
Cooling Degree Days 6    
Growing Degree Days 20 (Base 50)    
Moisture  
Dew Point 68 °F    
Average Humidity 94    
Maximum Humidity 100    
Minimum Humidity 78    
Precipitation  
Precipitation 0.00 in - - ()
Sea Level Pressure  
Sea Level Pressure 30.07 in    
Wind  
Wind Speed 4 mph (NE)    
Max Wind Speed 8 mph    
Max Gust Speed -    
Visibility 8 miles    
Events      
Averages and records for this station are not official NWS values.
T = Trace of Precipitation, MM = Missing Value Source: NWS Daily Summary

Daily Weather History Graph

Daily Weather History Graph

Search for Another Location

Airport or City:

Trip Planner

Search our weather history database for the weather conditions in past years. The results will help you decide how hot, cold, wet, or windy it might be!

Date:

Astronomy

Sep. 28, 2012 Rise Set
Actual Time 7:24 AM CDT 7:19 PM CDT
Civil Twilight 6:59 AM CDT 7:44 PM CDT
Nautical Twilight 6:30 AM CDT 8:13 PM CDT
Astronomical Twilight 6:00 AM CDT 8:42 PM CDT
Moon 6:21 PM CDT (9/28) 5:58 AM CDT (9/28)
Length of Visible Light 12h 44m
Length of Day
11h 54m
Waxing Gibbous, 98% of the Moon is Illuminated
Sep 28
Waxing Gibbous
Sep 29
Full
Oct 8
Last Quarter
Oct 15
New
Oct 21
First Quarter

Hourly Weather History & Observations

Time (CDT) Temp. Dew Point Humidity Pressure Visibility Wind Dir Wind Speed Gust Speed Precip Events Conditions
12:15 AM 68.0 °F 68.0 °F 100% 30.09 in 10.0 mi ENE 3.5 mph - N/A   Clear
12:35 AM 68.0 °F 68.0 °F 100% 30.09 in 10.0 mi NE 3.5 mph - N/A   Clear
12:55 AM 68.0 °F 68.0 °F 100% 30.09 in 10.0 mi NE 4.6 mph - N/A   Clear
1:15 AM 68.0 °F 68.0 °F 100% 30.09 in 10.0 mi NE 3.5 mph - N/A   Clear
1:55 AM 66.2 °F 66.2 °F 100% 30.08 in 10.0 mi NE 4.6 mph - N/A   Clear
2:15 AM 66.2 °F 66.2 °F 100% 30.08 in 10.0 mi Calm Calm - N/A   Clear
2:35 AM 66.2 °F 66.2 °F 100% 30.08 in 7.0 mi Calm Calm - N/A   Clear
2:55 AM 64.4 °F 64.4 °F 100% 30.08 in 7.0 mi Calm Calm - N/A   Clear
3:15 AM 64.4 °F 64.4 °F 100% 30.07 in 7.0 mi Calm Calm - N/A   Clear
3:35 AM 64.4 °F 64.4 °F 100% 30.07 in 7.0 mi Calm Calm - N/A   Scattered Clouds
3:55 AM 64.4 °F 64.4 °F 100% 30.06 in 7.0 mi ENE 3.5 mph - N/A   Scattered Clouds
4:15 AM 64.4 °F 64.4 °F 100% 30.07 in 7.0 mi ENE 3.5 mph - N/A   Scattered Clouds
4:35 AM 64.4 °F 64.4 °F 100% 30.06 in 7.0 mi ENE 3.5 mph - N/A   Scattered Clouds
4:55 AM 64.4 °F 64.4 °F 100% 30.06 in 7.0 mi Calm Calm - N/A   Scattered Clouds
5:15 AM 64.4 °F 64.4 °F 100% 30.07 in 7.0 mi Calm Calm - N/A   Mostly Cloudy
5:35 AM 64.4 °F 64.4 °F 100% 30.06 in 7.0 mi East 3.5 mph - N/A   Scattered Clouds
5:55 AM 64.4 °F 64.4 °F 100% 30.07 in 5.0 mi Calm Calm - N/A   Clear
6:15 AM 64.4 °F 64.4 °F 100% 30.06 in 7.0 mi Calm Calm - N/A   Clear
6:35 AM 64.4 °F 64.4 °F 100% 30.07 in 7.0 mi East 4.6 mph - N/A   Clear
6:55 AM 64.4 °F 64.4 °F 100% 30.07 in 7.0 mi NNE 3.5 mph - N/A   Scattered Clouds
7:15 AM 64.4 °F 64.4 °F 100% 30.08 in 7.0 mi NNE 3.5 mph - N/A   Scattered Clouds
7:35 AM 64.4 °F 64.4 °F 100% 30.08 in 5.0 mi NE 4.6 mph - N/A   Mostly Cloudy
7:55 AM 64.4 °F 64.4 °F 100% 30.08 in 5.0 mi NE 4.6 mph - N/A   Mostly Cloudy
8:15 AM 66.2 °F 66.2 °F 100% 30.10 in 5.0 mi NNE 5.8 mph - N/A   Mostly Cloudy
8:35 AM 66.2 °F 66.2 °F 100% 30.11 in 5.0 mi NNE 8.1 mph - N/A   Overcast
8:55 AM 66.2 °F 66.2 °F 100% 30.11 in 5.0 mi NNE 5.8 mph - N/A   Mostly Cloudy
9:15 AM 68.0 °F 68.0 °F 100% 30.11 in 4.0 mi NE 5.8 mph - N/A   Clear
9:35 AM 68.0 °F 68.0 °F 100% 30.11 in 5.0 mi NE 4.6 mph - N/A   Scattered Clouds
9:55 AM 68.0 °F 68.0 °F 100% 30.11 in 5.0 mi East 4.6 mph - N/A   Scattered Clouds
10:15 AM 69.8 °F 69.8 °F 100% 30.12 in 7.0 mi East 3.5 mph - N/A   Mostly Cloudy
10:35 AM 69.8 °F 69.8 °F 100% 30.12 in 7.0 mi ENE 4.6 mph - N/A   Mostly Cloudy
10:55 AM 69.8 °F 69.8 °F 100% 30.12 in 7.0 mi ENE 5.8 mph - N/A   Overcast
11:15 AM 69.8 °F 69.8 °F 100% 30.12 in 7.0 mi Calm Calm - N/A   Overcast
11:35 AM 69.8 °F 69.8 °F 100% 30.12 in 7.0 mi NE 3.5 mph - N/A   Overcast
11:55 AM 69.8 °F 69.8 °F 100% 30.12 in 7.0 mi NE 5.8 mph - N/A   Overcast
12:15 PM 71.6 °F 69.8 °F 94% 30.11 in 7.0 mi NE 5.8 mph - N/A   Overcast
12:35 PM 71.6 °F 69.8 °F 94% 30.10 in 10.0 mi ENE 4.6 mph - N/A   Overcast
12:55 PM 71.6 °F 69.8 °F 94% 30.09 in 10.0 mi ENE 5.8 mph - N/A   Overcast
1:15 PM 71.6 °F 69.8 °F 94% 30.09 in 10.0 mi NE 6.9 mph - N/A   Scattered Clouds
1:35 PM 73.4 °F 69.8 °F 88% 30.08 in 10.0 mi NE 8.1 mph - N/A   Scattered Clouds
2:15 PM 73.4 °F 69.8 °F 88% 30.06 in 10.0 mi ENE 4.6 mph - N/A   Clear
2:35 PM 73.4 °F 69.8 °F 88% 30.05 in 10.0 mi East 5.8 mph - N/A   Clear
2:55 PM 73.4 °F 69.8 °F 88% 30.05 in 10.0 mi ENE 4.6 mph - N/A   Clear
3:15 PM 75.2 °F 69.8 °F 83% 30.04 in 10.0 mi East 6.9 mph - N/A   Clear
3:35 PM 75.2 °F 69.8 °F 83% 30.04 in 10.0 mi ENE 5.8 mph - N/A   Clear
3:55 PM 75.2 °F 69.8 °F 83% 30.04 in 10.0 mi East 5.8 mph - N/A   Clear
4:15 PM 77.0 °F 69.8 °F 78% 30.04 in 10.0 mi ENE 4.6 mph - N/A   Clear
4:35 PM 75.2 °F 69.8 °F 83% 30.04 in 10.0 mi ENE 3.5 mph - N/A   Clear
4:55 PM 77.0 °F 69.8 °F 78% 30.03 in 10.0 mi East 3.5 mph - N/A   Scattered Clouds
5:15 PM 77.0 °F 69.8 °F 78% 30.04 in 10.0 mi NE 4.6 mph - N/A   Clear
5:35 PM 77.0 °F 69.8 °F 78% 30.03 in 10.0 mi ENE 3.5 mph - N/A   Scattered Clouds
5:55 PM 75.2 °F 69.8 °F 83% 30.04 in 10.0 mi NE 3.5 mph - N/A   Scattered Clouds
6:15 PM 75.2 °F 69.8 °F 83% 30.04 in 10.0 mi NE 4.6 mph - N/A   Scattered Clouds
6:35 PM 75.2 °F 69.8 °F 83% 30.04 in 10.0 mi NNE 4.6 mph - N/A   Mostly Cloudy
6:55 PM 73.4 °F 69.8 °F 88% 30.04 in 10.0 mi NE 3.5 mph - N/A   Scattered Clouds
7:15 PM 73.4 °F 69.8 °F 88% 30.04 in 10.0 mi North 4.6 mph - N/A   Scattered Clouds
7:35 PM 73.4 °F 69.8 °F 88% 30.04 in 10.0 mi NNE 3.5 mph - N/A   Clear
7:55 PM 73.4 °F 69.8 °F 88% 30.04 in 10.0 mi NNE 3.5 mph - N/A   Clear
8:15 PM 71.6 °F 69.8 °F 94% 30.04 in 10.0 mi ENE 3.5 mph - N/A   Clear
8:35 PM 71.6 °F 69.8 °F 94% 30.04 in 10.0 mi ESE 4.6 mph - N/A   Clear
8:55 PM 71.6 °F 69.8 °F 94% 30.04 in 10.0 mi SE 4.6 mph - N/A   Clear
9:15 PM 71.6 °F 69.8 °F 94% 30.04 in 10.0 mi NNE 3.5 mph - N/A   Clear
9:35 PM 71.6 °F 69.8 °F 94% 30.05 in 10.0 mi North 4.6 mph - N/A   Scattered Clouds
9:55 PM 71.6 °F 69.8 °F 94% 30.04 in 10.0 mi NNE 4.6 mph - N/A   Scattered Clouds
10:15 PM 71.6 °F 69.8 °F 94% 30.05 in 10.0 mi NE 3.5 mph - N/A   Clear
10:35 PM 71.6 °F 69.8 °F 94% 30.05 in 10.0 mi East 4.6 mph - N/A   Clear
10:55 PM 71.6 °F 69.8 °F 94% 30.06 in 10.0 mi East 3.5 mph - N/A   Clear
11:15 PM 71.6 °F 69.8 °F 94% 30.06 in 10.0 mi ENE 3.5 mph - N/A   Scattered Clouds
11:35 PM 71.6 °F 69.8 °F 94% 30.06 in 10.0 mi East 4.6 mph - N/A   Mostly Cloudy
11:55 PM 69.8 °F 69.8 °F 100% 30.06 in 10.0 mi ESE 4.6 mph - N/A   Overcast